Wind_Speed
23 23 20 19 17 15 16 26 27 25 23 22 21 20 19 18 18 16 15 15 15 16 17 18 21 21 10 5 6 3 3 4 3 6 12 8 5 5 5 4 8 6 5 9 10 10 8
20 24 24 26 28 24 25 17 20 22 25 26 23 22 21 20 20 18 18 17 15 16 16 17 19 18 4 4 2 3 4 6 5 8 18 11 5 6 6 5 4 5 10 10 10 9 7
14 16 16 17 20 22 24 23 25 17 18 16 18 19 20 23 21 19 20 19 16 15 16 15 16 11 4 12 5 11 7 8 12 13 8 18 15 1 6 7 6 7 10 10 10 13 10
11 11 12 14 17 16 18 20 27 26 24 20 23 18 15 19 22 20 18 21 17 13 14 14 10 3 7 11 12 16 10 14 12 12 15 15 14 5 2 6 7 7 6 4 12 14 18
11 11 11 12 13 13 15 16 20 25 23 21 24 20 19 18 19 18 18 19 14 13 12 11 4 3 9 8 5 10 9 12 15 17 11 12 6 2 5 5 5 6 5 9 11 11 4
13 11 10 12 12 14 16 15 16 17 21 19 19 18 19 16 17 14 15 14 10 12 6 4 7 3 8 5 11 5 8 13 5 4 4 5 2 3 2 3 4 5 7 9 9 5 6
14 12 11 10 11 11 13 12 13 15 15 17 16 17 16 16 15 14 13 4 3 2 6 10 7 7 5 9 3 7 8 11 4 4 6 5 3 7 11 12 13 13 11 10 8 8 13
18 15 15 11 10 10 9 9 11 12 12 15 14 14 14 15 15 17 14 3 4 4 6 17 21 20 27 20 11 9 9 6 7 7 6 6 10 15 14 14 13 8 8 10 11 8 8
20 19 17 17 14 10 9 8 7 8 10 12 14 13 13 15 18 19 15 10 4 2 3 9 20 14 14 21 15 16 8 7 7 6 8 11 10 10 13 12 15 7 6 8 14 6 5
22 20 19 19 17 15 12 10 8 7 8 8 11 14 13 19 18 13 4 12 6 1 3 7 8 6 14 7 6 8 18 9 6 11 11 11 13 15 10 9 9 5 6 11 10 7 5
25 22 20 20 20 19 18 13 10 8 7 7 10 14 15 21 13 10 8 11 7 3 3 4 4 3 5 10 3 2 10 5 10 10 7 8 5 5 6 5 5 4 6 5 5 7 6
24 23 23 21 18 17 18 16 12 10 8 6 8 13 16 16 11 8 12 19 9 2 8 4 4 5 5 5 3 3 3 4 3 3 9 13 9 8 8 3 2 6 4 7 6 1 6
25 25 25 24 22 20 16 17 15 11 8 5 7 16 23 21 9 19 23 11 3 5 6 6 6 8 10 8 7 5 5 4 4 3 5 8 14 13 11 5 3 2 3 3 3 1 8
29 26 23 24 23 21 20 16 16 15 11 7 8 21 27 21 16 29 16 3 6 9 14 8 6 12 10 6 9 10 7 6 10 9 4 3 7 5 6 7 8 6 5 3 4 3 9
28 27 28 24 23 22 22 23 17 14 13 9 5 23 9 18 25 34 5 5 9 9 6 12 13 6 8 11 6 8 10 7 7 14 8 4 5 4 7 4 4 1 2 1 2 9 9
29 27 26 26 24 23 22 21 22 20 15 10 8 10 5 21 28 11 6 12 9 11 15 10 5 9 6 10 8 6 6 6 14 3 5 1 3 3 2 1 3 6 3 3 3 4 7
30 29 28 27 25 25 22 20 19 20 17 13 11 2 5 20 19 2 4 9 9 14 13 9 10 9 10 7 11 8 8 1 3 4 6 3 4 3 5 1 4 3 2 4 6 4 3
32 31 31 30 28 27 25 25 25 23 20 18 8 5 13 26 3 1 8 6 10 14 13 11 5 3 5 5 4 3 10 2 6 7 6 2 2 2 5 9 13 6 6 6 4 6 5
33 34 34 34 32 32 31 28 27 28 27 14 5 2 11 7 8 5 5 11 9 7 14 2 8 5 3 4 3 4 7 5 7 5 5 2 1 2 7 5 4 3 3 6 3 2 9
36 35 35 36 36 35 34 33 31 29 29 21 4 4 1 1 0 9 9 15 15 10 18 7 8 8 3 5 4 2 6 1 4 6 7 7 2 6 6 3 5 6 10 6 3 3 3
38 39 37 40 38 38 38 36 36 35 33 24 4 4 7 6 11 10 11 8 18 13 17 12 14 8 6 5 1 4 6 5 4 7 3 4 3 1 4 8 11 12 12 12 7 9 4
42 42 40 41 40 43 42 41 39 40 36 28 7 4 4 5 10 14 7 11 15 18 8 12 8 8 8 6 6 3 6 4 5 5 4 1 2 3 5 11 14 17 14 13 10 9 2
46 45 43 43 41 40 43 44 45 45 39 16 13 14 7 8 11 13 18 18 13 8 7 10 8 7 6 6 4 6 5 3 9 8 6 5 4 2 5 7 6 8 13 12 8 6 4
51 50 47 45 42 42 45 47 48 50 47 30 22 11 4 5 13 19 18 18 17 15 9 7 7 8 4 10 9 7 7 2 7 8 9 5 5 2 3 5 4 5 3 4 4 5 10
56 54 52 50 47 46 46 48 50 52 47 36 19 12 4 5 12 14 17 21 17 11 3 1 3 6 9 7 4 4 2 2 4 6 8 6 4 2 2 3 3 1 2 3 3 5 9
63 62 59 54 51 50 48 50 52 51 48 40 41 18 3 3 5 15 18 11 12 10 5 3 1 7 7 3 3 6 5 5 5 4 11 7 5 4 2 3 3 3 4 5 1 4 12
60 64 64 63 60 56 53 52 53 50 49 42 23 37 4 3 4 7 12 12 8 6 6 5 4 3 5 3 4 3 4 7 5 7 8 6 5 12 6 4 4 5 6 7 1 4 13
60 56 53 55 64 66 57 54 53 49 49 44 31 26 9 3 1 6 7 7 7 8 9 9 5 3 2 5 4 4 3 4 4 5 7 8 6 4 4 4 7 3 4 4 3 4 7
58 53 53 54 61 67 61 57 53 48 47 42 18 29 13 2 1 4 2 19 21 8 8 9 5 7 4 4 3 3 1 1 3 2 6 4 5 4 4 2 1 2 3 1 4 5 3
Wind_Direction
258 260 261 262 261 272 273 268 262 259 257 258 259 263 265 269 272 277 284 290 305 317 326 332 336 345 357 345 259 238 323 308 283 298 281 300 326 301 290 301 342 299 306 324 315 342 312
284 273 274 275 274 268 269 273 275 271 256 253 253 256 260 261 262 269 278 281 294 308 319 329 333 342 340 283 327 327 4 282 299 265 273 278 264 283 289 294 279 296 310 308 311 287 288
280 278 266 275 270 261 263 268 267 272 270 262 263 269 269 266 256 263 267 269 278 298 314 323 330 342 284 244 249 294 262 265 262 289 295 289 328 47 341 327 303 323 314 300 279 278 267
272 261 252 253 261 262 263 253 261 263 256 256 262 258 257 265 259 254 251 254 272 288 301 312 323 327 255 267 273 269 255 254 260 273 283 295 308 358 320 295 324 315 288 273 264 256 258
258 253 252 253 263 269 268 256 257 257 259 255 252 256 253 262 251 249 237 251 264 275 286 298 312 175 265 310 246 266 230 235 241 238 249 273 296 219 318 296 312 232 257 256 280 291 162
255 259 262 269 274 275 269 266 263 260 253 252 254 251 252 253 252 236 227 240 259 277 299 258 260 317 262 220 198 209 243 237 277 253 209 246 273 213 291 154 227 260 282 286 300 309 7
248 262 262 263 272 279 276 258 261 264 257 250 252 247 245 240 239 219 202 196 267 188 235 204 191 230 266 286 192 209 255 224 240 277 211 209 171 230 227 222 232 253 278 296 300 349 338
252 256 261 261 263 268 270 269 251 256 253 241 241 245 235 231 234 207 177 223 253 127 291 238 254 245 251 266 274 233 231 175 200 232 254 259 249 239 238 258 262 280 305 303 297 325 297
252 253 261 260 255 262 260 263 265 259 252 242 235 235 226 222 222 178 176 194 175 29 283 236 226 237 230 224 236 247 208 207 208 253 236 236 249 269 254 267 243 249 252 284 291 303 308
252 253 253 260 249 261 264 264 267 264 260 240 222 217 210 206 166 171 195 218 164 179 303 262 213 241 225 209 250 238 228 207 208 232 262 265 245 252 281 299 296 282 337 326 308 344 286
250 249 250 251 251 249 259 266 264 266 264 253 224 210 207 207 150 161 185 184 168 85 307 204 51 124 77 147 108 175 204 194 234 213 231 242 294 307 293 298 272 296 36 358 338 327 354
245 247 248 250 249 257 261 259 262 261 272 271 238 218 202 175 157 171 173 155 132 97 245 220 121 152 138 194 199 76 78 47 28 310 263 268 286 280 260 201 77 352 20 10 330 323 270
242 245 247 245 247 250 256 256 256 255 259 271 230 217 207 186 169 161 163 129 117 209 235 189 172 162 179 187 217 175 172 179 203 171 244 267 250 249 245 216 149 59 33 333 327 291 233
238 237 239 246 247 242 246 255 256 253 255 264 246 216 210 193 177 166 152 111 193 208 239 336 117 155 185 194 207 210 172 206 221 240 282 267 323 347 359 201 181 172 137 183 249 294 299
233 235 239 240 244 245 243 244 245 247 245 253 246 206 205 196 180 171 159 231 198 209 241 235 256 203 191 219 210 184 189 215 232 208 194 208 256 82 50 47 80 71 186 210 329 286 282
233 232 233 235 238 240 237 235 240 248 244 230 211 175 208 190 179 173 189 207 235 232 267 298 276 182 216 200 210 138 180 202 226 278 132 43 340 305 351 292 214 151 152 33 343 292 260
233 233 232 231 232 232 231 232 240 236 229 216 178 183 190 186 154 194 191 213 251 262 271 272 256 266 217 231 181 175 191 79 129 99 60 91 127 272 20 232 255 257 206 205 178 192 237
234 233 233 233 229 232 231 232 233 227 219 202 148 217 173 154 132 170 223 190 228 254 240 269 290 304 275 213 277 260 207 190 121 119 131 55 121 268 242 290 281 288 247 203 176 233 246
235 233 233 232 231 229 229 227 227 218 207 180 150 101 181 191 185 203 225 229 249 261 253 317 244 227 2 321 340 246 89 9 89 107 132 104 168 9 316 328 1 38 359 353 334 137 220
237 236 235 231 227 225 222 223 225 217 212 203 129 150 147 176 229 223 201 225 232 249 251 210 254 255 244 291 250 204 106 84 48 83 86 85 201 169 235 219 304 303 301 289 289 232 217
240 237 244 233 230 225 219 216 218 218 214 200 159 187 168 171 218 206 196 212 218 235 223 204 218 202 183 229 286 184 97 98 80 117 84 112 202 170 278 281 281 275 264 266 248 257 202
241 239 237 236 240 229 220 213 212 216 214 211 183 180 146 197 185 190 184 206 229 236 237 221 228 186 211 176 172 212 161 140 177 147 124 126 247 84 293 275 255 253 255 259 247 256 217
238 234 232 232 233 231 217 212 208 213 206 211 215 212 144 167 175 180 209 207 214 233 243 207 207 182 199 175 112 86 78 65 160 147 157 160 144 94 265 268 286 263 231 232 239 213 175
238 233 229 224 225 225 217 210 208 213 205 206 195 197 163 198 170 199 201 208 224 216 205 228 198 146 138 92 72 50 28 40 155 175 154 150 131 150 271 324 245 239 352 311 104 92 104
237 232 226 223 220 217 217 213 207 209 206 207 224 202 170 212 196 185 203 201 212 248 228 179 341 134 116 79 83 78 344 352 239 197 161 137 136 212 209 225 255 213 216 177 166 213 154
235 230 225 219 214 213 210 208 204 205 202 205 221 247 194 167 237 183 189 200 197 206 113 207 18 127 89 106 118 199 184 189 183 211 165 149 143 156 282 262 282 199 187 127 312 271 163
231 225 222 218 213 207 202 200 201 201 201 201 215 227 266 210 277 182 186 198 152 145 150 140 117 58 90 117 188 195 226 189 191 188 169 165 172 216 226 254 272 136 159 133 159 250 145
224 217 214 211 204 198 194 193 196 197 196 194 208 209 209 200 298 24 295 177 153 166 161 171 79 319 109 169 194 188 205 233 153 196 172 168 164 186 194 231 244 39 98 198 205 45 138
212 202 202 198 197 187 186 188 191 191 191 189 208 208 232 186 356 75 259 21 179 160 125 166 136 154 160 162 203 178 360 35 171 228 169 174 182 176 171 192 146 4 94 113 101 121 92
Height
796 800 801 803 804 806 807 810 811 813 814 817 818 819 820 822 822 823 824 824 823 821 819 817 814 810 806 806 797 790 790 789 789 791 791 787 785 788 792 783 784 785 781 776 775 773 771
792 793 795 796 799 799 803 804 806 806 808 811 813 814 815 817 819 820 822 823 822 820 818 817 814 812 810 810 792 790 790 790 789 788 791 787 785 782 787 785 788 779 780 778 774 774 771
788 790 789 791 796 795 795 797 801 801 801 805 807 809 811 813 814 814 819 822 820 818 817 816 815 814 812 801 789 790 790 789 788 787 789 786 785 784 785 790 780 781 788 782 777 771 775
785 785 786 789 793 791 790 789 796 797 797 799 803 803 805 809 810 811 809 817 818 816 815 816 814 816 809 789 788 787 786 787 786 786 786 785 785 785 787 784 786 791 788 797 771 764 760
781 782 784 785 786 786 787 785 788 792 793 792 799 799 800 802 806 808 807 813 814 813 811 814 813 813 803 790 786 783 784 785 782 784 785 785 785 788 790 797 802 793 802 791 779 758 756
779 778 778 781 780 782 785 783 784 786 788 790 792 794 797 799 802 803 806 809 813 809 810 813 813 815 795 783 779 782 782 783 782 781 784 787 791 798 797 803 815 797 794 786 784 764 764
772 774 774 776 778 779 781 779 781 784 783 784 788 790 793 797 798 799 805 811 815 810 810 797 794 789 778 778 778 776 779 780 781 785 795 787 803 808 796 789 783 783 784 786 779 766 769
768 770 771 772 774 775 777 779 779 780 779 781 784 787 791 793 795 798 801 805 802 799 801 791 787 781 776 778 778 774 775 781 784 795 789 795 799 786 781 778 776 778 783 784 772 766 772
765 766 768 769 771 772 774 776 776 778 777 777 780 784 786 790 793 796 798 799 800 799 803 780 772 764 769 771 771 770 771 773 779 788 789 794 783 770 774 776 774 776 781 782 781 774 773
760 762 765 765 767 770 772 772 774 774 776 775 777 780 785 786 794 794 797 798 799 800 812 770 755 750 755 760 768 760 761 770 776 782 784 782 769 770 771 776 774 782 773 776 777 785 799
755 757 760 762 763 766 767 770 771 772 774 774 775 775 779 785 784 792 792 794 800 803 816 750 751 748 748 760 762 759 757 765 775 776 779 779 770 772 775 774 767 776 771 780 782 792 794
748 752 755 758 759 761 763 765 768 769 772 771 774 774 776 780 783 787 790 793 799 810 801 753 753 754 759 761 759 759 762 764 766 773 772 772 765 770 767 760 766 769 776 784 787 795 807
742 745 749 752 755 757 758 760 764 767 769 770 771 774 775 776 779 784 788 792 805 800 747 749 753 753 759 763 765 763 771 778 784 789 789 772 769 760 756 767 764 772 787 821 818 812 799
734 738 741 745 748 751 753 757 760 763 767 769 770 771 773 774 776 781 787 796 793 761 756 737 742 750 759 755 760 760 768 779 776 776 782 784 789 761 755 762 773 777 786 804 808 811 800
726 731 734 739 742 745 748 752 756 760 763 767 769 769 770 772 777 776 787 785 767 755 744 745 744 751 756 751 755 759 766 770 766 767 782 779 776 763 763 763 770 778 791 782 794 798 799
718 722 727 732 736 739 743 746 752 755 760 765 766 767 768 771 774 779 779 768 759 744 739 739 748 745 753 752 758 760 762 754 760 759 762 769 787 767 765 764 768 777 778 811 815 813 802
709 713 718 724 729 733 737 741 746 750 756 762 764 766 766 769 774 784 771 764 753 747 744 744 742 744 742 747 749 760 757 755 753 763 763 766 782 781 773 775 779 781 787 787 797 803 817
699 705 710 715 720 727 731 736 741 745 752 756 757 762 766 768 777 778 772 764 754 747 744 744 742 741 743 740 745 749 753 747 753 761 771 774 782 800 784 775 770 775 776 781 816 797 792
690 695 701 705 712 718 724 729 735 739 743 748 750 763 766 766 763 772 763 755 754 745 743 745 743 738 739 745 754 746 758 761 758 762 771 773 791 813 797 784 776 784 781 784 779 790 790
679 684 689 696 701 709 715 721 725 731 737 743 748 759 766 766 763 758 753 753 750 742 742 746 742 741 742 747 746 751 762 766 765 771 772 779 789 800 801 793 791 796 782 778 785 798 799
667 672 677 683 690 697 704 710 718 723 729 737 737 741 742 755 756 751 745 742 749 745 735 736 743 739 744 752 749 754 761 774 774 775 776 786 797 803 796 787 786 789 786 779 791 779 795
653 658 665 671 677 685 692 698 707 715 723 728 729 728 734 736 742 751 750 743 739 734 732 732 736 736 741 751 753 754 756 774 778 777 781 786 805 813 823 788 785 788 783 780 785 781 793
637 643 650 657 665 671 679 688 696 704 716 717 716 712 718 724 736 745 735 732 733 734 729 727 732 736 741 743 743 750 753 755 764 776 787 795 808 822 810 778 769 788 779 777 771 767 770
618 626 634 642 650 658 667 676 686 693 703 709 706 704 715 720 722 724 726 732 730 726 738 725 727 736 740 738 745 752 756 755 764 767 773 796 804 802 804 795 788 782 771 767 770 769 780
596 605 615 625 635 645 655 665 674 684 693 702 701 703 706 712 706 718 722 725 729 729 731 730 728 730 733 743 761 767 776 768 763 764 772 779 796 805 805 787 769 773 773 773 775 776 778
569 581 593 606 619 632 643 654 664 675 686 696 699 701 702 710 706 703 716 716 727 726 735 741 734 731 736 753 767 770 772 766 768 761 761 776 783 799 787 776 766 776 766 766 769 782 773
536 551 567 583 600 617 630 643 656 668 679 690 692 701 703 706 698 697 702 710 713 725 735 739 737 740 739 754 763 765 758 744 754 761 768 777 784 784 789 784 771 764 766 766 783 782 774
509 527 544 560 577 601 618 634 648 661 673 684 690 698 701 705 700 699 698 698 704 712 723 734 744 748 750 759 757 754 760 755 754 753 758 763 781 783 781 776 769 770 770 775 777 777 778
480 507 528 547 565 588 608 626 642 655 667 681 689 696 702 698 704 701 698 696 690 700 715 723 729 735 745 748 748 750 757 758 753 748 743 760 760 769 772 779 780 776 776 774 775 782 788